,,PA_Meas_PMT16A,,PR_Meas_QMR101_102,,RH_Meas_QMH101,,SR_Meas_QMS101,,TA_Meas_QMH101,,GenWind,,GenWind,
time,status,PA,status,PR,status,RH,status,SR,status,TA,status,DirAvg,status,SpdAvg,
2011-08-05, 00:00:05,VALID,917.627,VALID,0,VALID,82.3405,VALID,0,VALID,19.7613,VALID,99,VALID,2.4043,
2011-08-05, 00:01:05,VALID,917.652,VALID,0,VALID,83.0724,VALID,0,VALID,19.7613,VALID,90,VALID,2.23789,
2011-08-05, 00:02:05,VALID,917.665,VALID,0,VALID,82.0432,VALID,0,VALID,19.7613,VALID,104,VALID,3.46758,
2011-08-05, 00:03:05,VALID,917.658,VALID,0,VALID,82.2338,VALID,0,VALID,19.8213,VALID,102,VALID,2.89219,
2011-08-05, 00:04:05,VALID,917.602,VALID,0,VALID,81.8831,VALID,0,VALID,19.8603,VALID,101,VALID,2.20313,
2011-08-05, 00:05:05,VALID,917.611,VALID,0,VALID,82.0051,VALID,0,VALID,19.8783,VALID,112,VALID,2.38711,
2011-08-05, 00:06:05,VALID,917.564,VALID,0,VALID,82.6531,VALID,0,VALID,19.8798,VALID,111,VALID,1.75508,
2011-08-05, 00:07:05,VALID,917.544,VALID,0,VALID,81.9822,VALID,0,VALID,19.8588,VALID,104,VALID,3.43281,
2011-08-05, 00:08:05,VALID,917.508,VALID,0,VALID,82.028,VALID,0,VALID,19.8393,VALID,112,VALID,3.00195,
2011-08-05, 00:09:05,VALID,917.521,VALID,0,VALID,82.9961,VALID,0,VALID,19.8003,VALID,117,VALID,2.06445,
2011-08-05, 00:10:05,VALID,917.476,VALID,0,VALID,82.5235,VALID,0,VALID,19.7223,VALID,104,VALID,2.37812,
2011-08-05, 00:11:05,VALID,917.458,VALID,0,VALID,82.5311,VALID,0,VALID,19.7223,VALID,115,VALID,2.75586,
2011-08-05, 00:12:05,VALID,917.433,VALID,0,VALID,82.6378,VALID,0,VALID,19.7628,VALID,107,VALID,2.21797,
2011-08-05, 00:13:05,VALID,917.406,VALID,0,VALID,83.0571,VALID,0,VALID,19.7223,VALID,114,VALID,1.87617,
2011-08-05, 00:14:05,VALID,917.38,VALID,0,VALID,83.5221,VALID,0,VALID,19.7028,VALID,117,VALID,1.79727,
2011-08-05, 00:15:05,VALID,917.392,VALID,0,VALID,83.7813,VALID,0,VALID,19.6248,VALID,113,VALID,1.74063,
2011-08-05, 00:16:05,VALID,917.371,VALID,0,VALID,83.8652,VALID,0,VALID,19.6053,VALID,111,VALID,1.89922,
2011-08-05, 00:17:04,VALID,917.359,VALID,0,VALID,83.7508,VALID,0,VALID,19.6053,VALID,122,VALID,2.45547,
2011-08-05, 00:18:04,VALID,917.294,VALID,0,VALID,82.4854,VALID,0,VALID,19.6443,VALID,115,VALID,2.71016,
2011-08-05, 00:19:04,VALID,917.312,VALID,0,VALID,82.7674,VALID,0,VALID,19.7028,VALID,118,VALID,2.01719,
2011-08-05, 00:20:04,VALID,917.318,VALID,0,VALID,82.31,VALID,0,VALID,19.7013,VALID,126,VALID,2.50547,
2011-08-05, 00:21:04,VALID,917.298,VALID,0,VALID,83.0114,VALID,0,VALID,19.7613,VALID,123,VALID,1.75898,
2011-08-05, 00:22:04,VALID,917.275,VALID,0,VALID,82.1118,VALID,0,VALID,19.7223,VALID,136,VALID,2.09609,
2011-08-05, 00:23:04,VALID,917.253,VALID,0,VALID,82.2567,VALID,0,VALID,19.7613,VALID,127,VALID,2.21172,
2011-08-05, 00:24:04,VALID,917.265,VALID,0,VALID,81.4943,VALID,0,VALID,19.7613,VALID,113,VALID,2.29492,
2011-08-05, 00:25:04,VALID,917.235,VALID,0,VALID,82.1728,VALID,0,VALID,19.7808,VALID,128,VALID,2.46367,
2011-08-05, 00:26:04,VALID,917.213,VALID,0,VALID,81.8069,VALID,0,VALID,19.7808,VALID,136,VALID,2.22109,
2011-08-05, 00:27:04,VALID,917.155,VALID,0,VALID,81.9288,VALID,0,VALID,19.8003,VALID,125,VALID,1.6832,
2011-08-05, 00:28:04,VALID,917.153,VALID,0,VALID,81.3952,VALID,0,VALID,19.8003,VALID,135,VALID,2.2207,
2011-08-05, 00:29:04,VALID,917.135,VALID,0,VALID,81.5553,VALID,0,VALID,19.8393,VALID,125,VALID,1.97266,
2011-08-05, 00:30:04,VALID,917.121,VALID,0,VALID,81.6544,VALID,0,VALID,19.8588,VALID,110,VALID,1.77227,
2011-08-05, 00:31:04,VALID,917.095,VALID,0,VALID,81.2732,VALID,0,VALID,19.8003,VALID,134,VALID,2.58125,
2011-08-05, 00:32:04,VALID,917.102,VALID,0,VALID,81.8145,VALID,0,VALID,19.8198,VALID,144,VALID,1.60508,
2011-08-05, 00:33:04,VALID,917.094,VALID,0,VALID,82.6912,VALID,0,VALID,19.7808,VALID,142,VALID,1.04258,
2011-08-05, 00:34:04,VALID,917.083,VALID,0,VALID,82.8132,VALID,0,VALID,19.7433,VALID,142,VALID,1.06094,
2011-08-05, 00:35:04,VALID,917.064,VALID,0,VALID,83.3544,VALID,0,VALID,19.6638,VALID,148,VALID,1.0375,
2011-08-05, 00:36:04,VALID,917.074,VALID,0,VALID,83.8195,VALID,0.107441,VALID,19.6053,VALID,164,VALID,1.78203,
2011-08-05, 00:37:04,VALID,917.043,VALID,0,VALID,84.6733,VALID,0,VALID,19.5273,VALID,159,VALID,1.33477,
2011-08-05, 00:38:04,VALID,917.031,VALID,0,VALID,85.1612,VALID,0,VALID,19.4298,VALID,170,VALID,1.91602,
2011-08-05, 00:39:04,VALID,916.986,VALID,0,VALID,85.954,VALID,0,VALID,19.3323,VALID,175,VALID,2.3,
2011-08-05, 00:40:04,VALID,917.001,VALID,0,VALID,86.8307,VALID,0,VALID,19.2348,VALID,167,VALID,2.17266,
2011-08-05, 00:41:04,VALID,916.976,VALID,0,VALID,87.4177,VALID,0,VALID,19.1178,VALID,161,VALID,1.85664,
2011-08-05, 00:42:04,VALID,916.955,VALID,0,VALID,87.7379,VALID,0,VALID,19.0788,VALID,170,VALID,1.68086,
2011-08-05, 00:43:04,VALID,916.96,VALID,0,VALID,88.1953,VALID,0,VALID,19.0398,VALID,176,VALID,2.25469,
2011-08-05, 00:44:04,VALID,916.951,VALID,0,VALID,88.1343,VALID,0,VALID,19.0008,VALID,168,VALID,2.10625,
2011-08-05, 00:45:04,VALID,916.948,VALID,0,VALID,88.0962,VALID,0,VALID,19.0008,VALID,177,VALID,2.00352,
2011-08-05, 00:46:04,VALID,916.91,VALID,0,VALID,88.4469,VALID,0,VALID,19.0023,VALID,160,VALID,1.6793,
2011-08-05, 00:47:04,VALID,916.867,VALID,0,VALID,88.302,VALID,0,VALID,18.9814,VALID,167,VALID,2.60781,
2011-08-05, 00:48:04,VALID,916.87,VALID,0,VALID,88.4469,VALID,0,VALID,18.9619,VALID,154,VALID,1.44414,
2011-08-05, 00:49:04,VALID,916.825,VALID,0,VALID,88.5384,VALID,0,VALID,18.9814,VALID,170,VALID,1.85391,
2011-08-05, 00:50:04,VALID,916.844,VALID,0,VALID,88.5384,VALID,0,VALID,18.9814,VALID,165,VALID,2.15742,
2011-08-05, 00:51:04,VALID,916.809,VALID,0,VALID,88.668,VALID,0,VALID,18.9619,VALID,174,VALID,2.22813,
2011-08-05, 00:52:04,VALID,916.798,VALID,0,VALID,88.6984,VALID,0,VALID,18.9619,VALID,176,VALID,2.26172,
2011-08-05, 00:53:04,VALID,916.765,VALID,0,VALID,88.6222,VALID,0,VALID,18.9214,VALID,177,VALID,2.07305,
2011-08-05, 00:54:04,VALID,916.782,VALID,0,VALID,88.4392,VALID,0,VALID,18.9814,VALID,158,VALID,2.1375,
2011-08-05, 00:55:04,VALID,916.761,VALID,0,VALID,88.4545,VALID,0,VALID,19.0008,VALID,176,VALID,1.95508,
2011-08-05, 00:56:04,VALID,916.764,VALID,0,VALID,88.4392,VALID,0,VALID,19.0008,VALID,178,VALID,2.02656,
2011-08-05, 00:57:04,VALID,916.744,VALID,0,VALID,88.6603,VALID,0,VALID,18.9814,VALID,175,VALID,2.1293,
2011-08-05, 00:58:04,VALID,916.725,VALID,0,VALID,88.6222,VALID,0,VALID,18.9619,VALID,158,VALID,2.05156,
2011-08-05, 00:59:04,VALID,916.722,VALID,0,VALID,87.9971,VALID,0,VALID,19.0008,VALID,174,VALID,1.66016,
2011-08-05, 01:00:04,VALID,916.706,VALID,0,VALID,87.6998,VALID,0,VALID,19.0384,VALID,158,VALID,1.40664,
2011-08-05, 01:01:04,VALID,916.698,VALID,0,VALID,87.4025,VALID,0,VALID,19.0983,VALID,141,VALID,1.34141,
2011-08-05, 01:02:04,VALID,916.662,VALID,0,VALID,87.654,VALID,0,VALID,19.0983,VALID,140,VALID,1.48398,
2011-08-05, 01:03:04,VALID,916.656,VALID,0,VALID,87.8675,VALID,0,VALID,19.0983,VALID,146,VALID,1.57617,
2011-08-05, 01:04:04,VALID,916.663,VALID,0,VALID,88.0962,VALID,0,VALID,19.0579,VALID,156,VALID,1.76797,
2011-08-05, 01:05:04,VALID,916.686,VALID,0,VALID,87.9666,VALID,0.107441,VALID,19.0983,VALID,164,VALID,1.71641,
2011-08-05, 01:06:04,VALID,916.661,VALID,0,VALID,87.9132,VALID,0,VALID,19.0983,VALID,133,VALID,1.27852,
2011-08-05, 01:07:04,VALID,916.633,VALID,0,VALID,88.1114,VALID,0,VALID,19.0983,VALID,169,VALID,1.38789,
2011-08-05, 01:08:04,VALID,916.615,VALID,0,VALID,88.2944,VALID,0,VALID,19.0788,VALID,149,VALID,1.21016,
2011-08-05, 01:09:04,VALID,916.623,VALID,0,VALID,88.6222,VALID,0,VALID,19.0593,VALID,167,VALID,1.02773,
2011-08-05, 01:10:04,VALID,916.587,VALID,0,VALID,89.1025,VALID,0,VALID,19.0203,VALID,150,VALID,1.70664,
2011-08-05, 01:11:04,VALID,916.596,VALID,0,VALID,89.6285,VALID,0,VALID,18.9619,VALID,164,VALID,1.08711,
2011-08-05, 01:12:04,VALID,916.568,VALID,0,VALID,89.9868,VALID,0,VALID,18.9229,VALID,136,VALID,1.95273,
2011-08-05, 01:13:04,VALID,916.569,VALID,0,VALID,90.0402,VALID,0,VALID,18.9243,VALID,141,VALID,1.17383,
2011-08-05, 01:14:04,VALID,916.558,VALID,0,VALID,89.9944,VALID,0,VALID,18.9034,VALID,143,VALID,2.22344,
2011-08-05, 01:15:04,VALID,916.503,VALID,0,VALID,89.6437,VALID,0,VALID,18.9034,VALID,162,VALID,1.41914,
2011-08-05, 01:16:04,VALID,916.527,VALID,0,VALID,88.7518,VALID,0,VALID,18.9619,VALID,164,VALID,1.8457,
2011-08-05, 01:17:04,VALID,916.529,VALID,0,VALID,88.2487,VALID,0,VALID,19.0008,VALID,131,VALID,1.51328,
2011-08-05, 01:18:04,VALID,916.531,VALID,0,VALID,87.7913,VALID,0,VALID,19.0593,VALID,142,VALID,1.43164,
2011-08-05, 01:19:04,VALID,916.516,VALID,0,VALID,87.4482,VALID,0,VALID,19.0788,VALID,163,VALID,1.9,
2011-08-05, 01:20:04,VALID,916.495,VALID,0,VALID,87.5016,VALID,0,VALID,19.1178,VALID,148,VALID,1.44023,
2011-08-05, 01:21:04,VALID,916.52,VALID,0,VALID,87.7074,VALID,0,VALID,19.1178,VALID,144,VALID,1.77734,
2011-08-05, 01:22:04,VALID,916.506,VALID,0,VALID,87.9818,VALID,0,VALID,19.0983,VALID,161,VALID,1.09453,
2011-08-05, 01:23:04,VALID,916.476,VALID,0,VALID,88.1343,VALID,0.107441,VALID,19.0579,VALID,158,VALID,1.26016,
2011-08-05, 01:24:04,VALID,916.472,VALID,0,VALID,88.2639,VALID,0,VALID,19.0398,VALID,162,VALID,1.38516,
2011-08-05, 01:25:04,VALID,916.469,VALID,0,VALID,88.4545,VALID,0,VALID,19.0203,VALID,169,VALID,1.22773,
2011-08-05, 01:26:04,VALID,916.498,VALID,0,VALID,88.3401,VALID,0.107441,VALID,19.0203,VALID,161,VALID,1.26172,
2011-08-05, 01:27:04,VALID,916.48,VALID,0,VALID,88.6908,VALID,0,VALID,18.9799,VALID,160,VALID,1.60195,
2011-08-05, 01:28:04,VALID,916.475,VALID,0,VALID,89.2321,VALID,0.107441,VALID,18.9619,VALID,166,VALID,1.78633,
2011-08-05, 01:29:04,VALID,916.473,VALID,0,VALID,89.6209,VALID,0,VALID,18.9229,VALID,164,VALID,1.52461,
2011-08-05, 01:30:04,VALID,916.497,VALID,0,VALID,89.9716,VALID,0,VALID,18.8449,VALID,165,VALID,1.61016,
2011-08-05, 01:31:04,VALID,916.466,VALID,0,VALID,90.1545,VALID,0,VALID,18.8254,VALID,164,VALID,1.50664,
2011-08-05, 01:32:04,VALID,916.464,VALID,0,VALID,89.9487,VALID,0,VALID,18.7864,VALID,170,VALID,1.47578,
2011-08-05, 01:33:04,VALID,916.43,VALID,0,VALID,88.1724,VALID,0,VALID,18.8254,VALID,166,VALID,1.6418,
2011-08-05, 01:34:04,VALID,916.403,VALID,0,VALID,87.2729,VALID,0,VALID,18.8839,VALID,147,VALID,0.723047,
2011-08-05, 01:35:04,VALID,916.399,VALID,0,VALID,85.4051,VALID,0,VALID,19.0008,VALID,133,VALID,1.5457,
2011-08-05, 01:36:04,VALID,916.384,VALID,0,VALID,83.667,VALID,0,VALID,19.1568,VALID,138,VALID,1.5375,
2011-08-05, 01:37:04,VALID,916.354,VALID,0,VALID,83.3163,VALID,0,VALID,19.3128,VALID,134,VALID,1.32266,
2011-08-05, 01:38:04,VALID,916.344,VALID,0,VALID,82.1652,VALID,0,VALID,19.4103,VALID,122,VALID,1.6668,
2011-08-05, 01:39:04,VALID,916.335,VALID,0,VALID,81.4181,VALID,0,VALID,19.5078,VALID,155,VALID,1.09609,
2011-08-05, 01:40:04,VALID,916.269,VALID,0,VALID,81.4562,VALID,0,VALID,19.5648,VALID,136,VALID,1.4832,
2011-08-05, 01:41:04,VALID,916.261,VALID,0,VALID,81.2351,VALID,0,VALID,19.6248,VALID,143,VALID,1.97344,
2011-08-05, 01:42:04,VALID,916.279,VALID,0,VALID,81.9441,VALID,0,VALID,19.6053,VALID,129,VALID,1.20352,
2011-08-05, 01:43:04,VALID,916.3,VALID,0,VALID,82.4549,VALID,0,VALID,19.5468,VALID,110,VALID,1.09727,
2011-08-05, 01:44:04,VALID,916.259,VALID,0,VALID,82.4854,VALID,0,VALID,19.5273,VALID,144,VALID,1.60625,
2011-08-05, 01:45:04,VALID,916.247,VALID,0,VALID,82.9275,VALID,0,VALID,19.4688,VALID,130,VALID,0.954297,
2011-08-05, 01:46:04,VALID,916.238,VALID,0,VALID,83.0495,VALID,0,VALID,19.4688,VALID,148,VALID,0.787109,
2011-08-05, 01:47:04,VALID,916.212,VALID,0,VALID,83.1257,VALID,0,VALID,19.4088,VALID,149,VALID,1.45625,
2011-08-05, 01:48:04,VALID,916.22,VALID,0,VALID,83.3773,VALID,0,VALID,19.3908,VALID,161,VALID,1.27773,
2011-08-05, 01:49:04,VALID,916.236,VALID,0,VALID,83.7661,VALID,0,VALID,19.3713,VALID,150,VALID,0.730078,
2011-08-05, 01:50:04,VALID,916.205,VALID,0,VALID,83.667,VALID,0,VALID,19.3323,VALID,154,VALID,1.23633,
2011-08-05, 01:51:04,VALID,916.192,VALID,0,VALID,83.4917,VALID,0,VALID,19.3338,VALID,171,VALID,1.45859,
2011-08-05, 01:52:04,VALID,916.203,VALID,0,VALID,83.2629,VALID,0,VALID,19.3128,VALID,179,VALID,1.31289,
2011-08-05, 01:53:04,VALID,916.217,VALID,0,VALID,84.193,VALID,0,VALID,19.3518,VALID,167,VALID,1.30313,
2011-08-05, 01:54:04,VALID,916.228,VALID,0,VALID,83.9872,VALID,0,VALID,19.3128,VALID,159,VALID,1.46719,
2011-08-05, 01:55:04,VALID,916.213,VALID,0,VALID,84.9249,VALID,0,VALID,19.3338,VALID,165,VALID,1.48164,
2011-08-05, 01:56:04,VALID,916.181,VALID,0,VALID,84.0634,VALID,0,VALID,19.2933,VALID,147,VALID,1.20859,
2011-08-05, 01:57:04,VALID,916.175,VALID,0,VALID,84.0024,VALID,0,VALID,19.3128,VALID,163,VALID,1.33359,
2011-08-05, 01:58:04,VALID,916.211,VALID,0,VALID,84.3074,VALID,0,VALID,19.3323,VALID,169,VALID,1.43906,
2011-08-05, 01:59:04,VALID,916.184,VALID,0,VALID,84.5742,VALID,0,VALID,19.3323,VALID,171,VALID,0.792578,
2011-08-05, 02:00:04,VALID,916.184,VALID,0,VALID,84.6962,VALID,0,VALID,19.2933,VALID,168,VALID,1.59922,
2011-08-05, 02:01:04,VALID,916.154,VALID,0,VALID,85.2755,VALID,0,VALID,19.2738,VALID,173,VALID,2.00469,
2011-08-05, 02:02:04,VALID,916.155,VALID,0,VALID,85.672,VALID,0,VALID,19.2543,VALID,164,VALID,0.803516,
2011-08-05, 02:03:04,VALID,916.141,VALID,0,VALID,85.1154,VALID,0,VALID,19.2738,VALID,172,VALID,1.94687,
2011-08-05, 02:04:04,VALID,916.12,VALID,0,VALID,84.8791,VALID,0,VALID,19.2738,VALID,162,VALID,1.78477,
2011-08-05, 02:05:04,VALID,916.119,VALID,0,VALID,84.4522,VALID,0,VALID,19.2738,VALID,168,VALID,1.8707,
2011-08-05, 02:06:04,VALID,916.112,VALID,0,VALID,84.0482,VALID,0,VALID,19.3323,VALID,154,VALID,2.07031,
2011-08-05, 02:07:04,VALID,916.103,VALID,0,VALID,83.4383,VALID,0,VALID,19.3908,VALID,155,VALID,1.15742,
2011-08-05, 02:08:04,VALID,916.12,VALID,0,VALID,83.2934,VALID,0,VALID,19.4088,VALID,163,VALID,0.950781,
2011-08-05, 02:09:04,VALID,916.077,VALID,0,VALID,83.2477,VALID,0,VALID,19.4298,VALID,130,VALID,1.44805,
2011-08-05, 02:10:04,VALID,916.096,VALID,0,VALID,83.5908,VALID,0,VALID,19.4493,VALID,178,VALID,1.01445,
2011-08-05, 02:11:04,VALID,916.085,VALID,0,VALID,83.8728,VALID,0.107441,VALID,19.4493,VALID,130,VALID,0.997656,
2011-08-05, 02:12:04,VALID,916.076,VALID,0,VALID,84.132,VALID,0,VALID,19.4298,VALID,159,VALID,1.18672,
2011-08-05, 02:13:04,VALID,916.066,VALID,0,VALID,83.7051,VALID,0,VALID,19.4298,VALID,147,VALID,1.56992,
2011-08-05, 02:14:04,VALID,916.076,VALID,0,VALID,84.1168,VALID,0,VALID,19.4883,VALID,129,VALID,1.10664,
2011-08-05, 02:15:04,VALID,916.06,VALID,0,VALID,83.9567,VALID,0,VALID,19.5078,VALID,164,VALID,1.5832,
2011-08-05, 02:16:04,VALID,916.042,VALID,0,VALID,84.0558,VALID,0.107441,VALID,19.5273,VALID,158,VALID,0.643359,
2011-08-05, 02:17:04,VALID,916.032,VALID,0,VALID,84.0634,VALID,0,VALID,19.5273,VALID,146,VALID,1.17148,
2011-08-05, 02:18:04,VALID,916.024,VALID,0,VALID,84.4903,VALID,0,VALID,19.4883,VALID,161,VALID,0.804688,
2011-08-05, 02:19:04,VALID,916.023,VALID,0,VALID,84.8867,VALID,0,VALID,19.4283,VALID,140,VALID,1.01094,
2011-08-05, 02:20:04,VALID,916.002,VALID,0,VALID,85.2679,VALID,0,VALID,19.3908,VALID,162,VALID,1.01484,
2011-08-05, 02:21:04,VALID,915.996,VALID,0,VALID,85.1993,VALID,0,VALID,19.3713,VALID,146,VALID,1.01836,
2011-08-05, 02:22:04,VALID,915.987,VALID,0,VALID,85.2374,VALID,0,VALID,19.3323,VALID,138,VALID,0.990234,
2011-08-05, 02:23:04,VALID,915.991,VALID,0,VALID,85.0697,VALID,0,VALID,19.3128,VALID,127,VALID,1.18203,
2011-08-05, 02:24:04,VALID,915.983,VALID,0,VALID,84.9782,VALID,0.107441,VALID,19.2933,VALID,137,VALID,0.853906,
2011-08-05, 02:25:04,VALID,915.983,VALID,0,VALID,83.6441,VALID,0,VALID,19.2933,VALID,141,VALID,1.48125,
2011-08-05, 02:26:04,VALID,915.982,VALID,0,VALID,84.6657,VALID,0,VALID,19.2933,VALID,122,VALID,0.949609,
2011-08-05, 02:27:04,VALID,915.95,VALID,0,VALID,84.193,VALID,0,VALID,19.2933,VALID,149,VALID,1.33633,
2011-08-05, 02:28:04,VALID,915.963,VALID,0,VALID,84.2692,VALID,0,VALID,19.3128,VALID,149,VALID,0.951172,
2011-08-05, 02:29:04,VALID,915.946,VALID,0,VALID,83.6594,VALID,0,VALID,19.3728,VALID,144,VALID,0.878516,
2011-08-05, 02:30:04,VALID,915.92,VALID,0,VALID,81.8374,VALID,0,VALID,19.4298,VALID,162,VALID,1.4918,
2011-08-05, 02:31:04,VALID,915.926,VALID,0,VALID,81.8298,VALID,0,VALID,19.5078,VALID,139,VALID,0.746484,
2011-08-05, 02:32:04,VALID,915.907,VALID,0,VALID,81.5401,VALID,0,VALID,19.5468,VALID,146,VALID,1.2332,
2011-08-05, 02:33:04,VALID,915.899,VALID,0,VALID,82.1728,VALID,0,VALID,19.6053,VALID,162,VALID,0.85,
2011-08-05, 02:34:04,VALID,915.89,VALID,0,VALID,81.8145,VALID,0,VALID,19.6053,VALID,155,VALID,1.71211,
2011-08-05, 02:35:04,VALID,915.862,VALID,0,VALID,82.0356,VALID,0,VALID,19.6053,VALID,159,VALID,1.04023,
2011-08-05, 02:36:04,VALID,915.842,VALID,0,VALID,82.5235,VALID,0,VALID,19.6068,VALID,121,VALID,0.90625,
2011-08-05, 02:37:04,VALID,915.812,VALID,0,VALID,82.8132,VALID,0,VALID,19.5483,VALID,161,VALID,1.1207,
2011-08-05, 02:38:04,VALID,915.835,VALID,0,VALID,83.3544,VALID,0,VALID,19.5093,VALID,159,VALID,1.10625,
2011-08-05, 02:39:04,VALID,915.82,VALID,0,VALID,83.8957,VALID,0,VALID,19.4298,VALID,157,VALID,0.648828,
2011-08-05, 02:40:04,VALID,915.802,VALID,0,VALID,84.1168,VALID,0,VALID,19.3518,VALID,148,VALID,0.975781,
2011-08-05, 02:41:04,VALID,915.787,VALID,0,VALID,83.4459,VALID,0,VALID,19.3323,VALID,140,VALID,1.82187,
2011-08-05, 02:42:04,VALID,915.776,VALID,0,VALID,83.5298,VALID,0,VALID,19.3128,VALID,142,VALID,1.61992,
2011-08-05, 02:43:04,VALID,915.769,VALID,0,VALID,83.6746,VALID,0,VALID,19.3143,VALID,129,VALID,1.43516,
2011-08-05, 02:44:04,VALID,915.764,VALID,0,VALID,82.5082,VALID,0,VALID,19.3128,VALID,133,VALID,2.18242,
2011-08-05, 02:45:04,VALID,915.75,VALID,0,VALID,82.2414,VALID,0,VALID,19.3713,VALID,136,VALID,1.92969,
2011-08-05, 02:46:04,VALID,915.778,VALID,0,VALID,81.9212,VALID,0,VALID,19.4118,VALID,137,VALID,1.67148,
2011-08-05, 02:47:04,VALID,915.733,VALID,0,VALID,81.0903,VALID,0,VALID,19.4883,VALID,106,VALID,1.1793,
2011-08-05, 02:48:04,VALID,915.716,VALID,0,VALID,80.1221,VALID,0,VALID,19.5663,VALID,130,VALID,2.23984,
2011-08-05, 02:49:04,VALID,915.722,VALID,0,VALID,80.2669,VALID,0,VALID,19.6248,VALID,138,VALID,1.03672,
2011-08-05, 02:50:04,VALID,915.713,VALID,0,VALID,80.2669,VALID,0,VALID,19.6443,VALID,135,VALID,1.25586,
2011-08-05, 02:51:04,VALID,915.684,VALID,0,VALID,79.2378,VALID,0,VALID,19.7223,VALID,125,VALID,2.82031,
2011-08-05, 02:52:04,VALID,915.695,VALID,0,VALID,79.1997,VALID,0,VALID,19.7823,VALID,146,VALID,1.62188,
2011-08-05, 02:53:04,VALID,915.661,VALID,0,VALID,79.436,VALID,0,VALID,19.7418,VALID,127,VALID,1.20859,
2011-08-05, 02:54:04,VALID,915.658,VALID,0,VALID,78.6813,VALID,0,VALID,19.7418,VALID,128,VALID,2.60234,
2011-08-05, 02:55:04,VALID,915.681,VALID,0,VALID,78.6432,VALID,0,VALID,19.7808,VALID,126,VALID,2.11172,
2011-08-05, 02:56:04,VALID,915.676,VALID,0,VALID,78.8337,VALID,0,VALID,19.8018,VALID,132,VALID,0.685547,
2011-08-05, 02:57:04,VALID,915.669,VALID,0,VALID,77.7665,VALID,0,VALID,19.8408,VALID,139,VALID,1.88594,
2011-08-05, 02:58:04,VALID,915.649,VALID,0,VALID,78.0638,VALID,0,VALID,19.8783,VALID,144,VALID,1.375,
2011-08-05, 02:59:04,VALID,915.67,VALID,0,VALID,77.7741,VALID,0,VALID,19.9173,VALID,157,VALID,1.4207,
2011-08-05, 03:00:04,VALID,915.677,VALID,0,VALID,79.1082,VALID,0,VALID,19.9368,VALID,177,VALID,1.22969,
2011-08-05, 03:01:04,VALID,915.668,VALID,0,VALID,79.3445,VALID,0,VALID,19.8393,VALID,157,VALID,1.5793,
2011-08-05, 03:02:04,VALID,915.643,VALID,0,VALID,79.5199,VALID,0,VALID,19.7613,VALID,165,VALID,1.9293,
2011-08-05, 03:03:04,VALID,915.699,VALID,0,VALID,80.084,VALID,0,VALID,19.7223,VALID,151,VALID,1.7957,
2011-08-05, 03:04:04,VALID,915.675,VALID,0,VALID,80.1145,VALID,0,VALID,19.7238,VALID,163,VALID,2.08516,
2011-08-05, 03:05:04,VALID,915.688,VALID,0,VALID,80.1526,VALID,0,VALID,19.6833,VALID,195,VALID,1.46992,
2011-08-05, 03:06:04,VALID,915.698,VALID,0,VALID,80.8692,VALID,0,VALID,19.6638,VALID,167,VALID,0.976953,
2011-08-05, 03:07:04,VALID,915.714,VALID,0,VALID,80.3279,VALID,0,VALID,19.6653,VALID,164,VALID,1.68945,
2011-08-05, 03:08:04,VALID,915.703,VALID,0,VALID,80.61,VALID,0,VALID,19.6458,VALID,159,VALID,0.694531,
2011-08-05, 03:09:04,VALID,915.685,VALID,0,VALID,79.6799,VALID,0,VALID,19.6443,VALID,156,VALID,1.24414,
2011-08-05, 03:10:04,VALID,915.662,VALID,0,VALID,79.4055,VALID,0,VALID,19.6638,VALID,192,VALID,1.82344,
2011-08-05, 03:11:04,VALID,915.662,VALID,0,VALID,79.3598,VALID,0,VALID,19.7028,VALID,119,VALID,1.08945,
2011-08-05, 03:12:04,VALID,915.663,VALID,0,VALID,78.8414,VALID,0,VALID,19.7628,VALID,172,VALID,1.65195,
2011-08-05, 03:13:04,VALID,915.656,VALID,0,VALID,78.4526,VALID,0,VALID,19.8213,VALID,172,VALID,1.83984,
2011-08-05, 03:14:04,VALID,915.672,VALID,0,VALID,76.9279,VALID,0,VALID,19.9383,VALID,159,VALID,1.80586,
2011-08-05, 03:15:04,VALID,915.631,VALID,0,VALID,76.5315,VALID,0,VALID,20.0553,VALID,143,VALID,1.69375,
2011-08-05, 03:16:04,VALID,915.631,VALID,0,VALID,75.9063,VALID,0,VALID,20.1334,VALID,156,VALID,1.56445,
2011-08-05, 03:17:04,VALID,915.628,VALID,0,VALID,75.8454,VALID,0,VALID,20.1724,VALID,160,VALID,1.36797,
2011-08-05, 03:18:04,VALID,915.638,VALID,0,VALID,76.0969,VALID,0,VALID,20.2114,VALID,155,VALID,2.02617,
2011-08-05, 03:19:04,VALID,915.619,VALID,0,VALID,76.6839,VALID,0,VALID,20.1903,VALID,135,VALID,1.05977,
2011-08-05, 03:20:04,VALID,915.623,VALID,0,VALID,76.318,VALID,0,VALID,20.1724,VALID,174,VALID,1.50508,
2011-08-05, 03:21:04,VALID,915.597,VALID,0,VALID,76.4171,VALID,0,VALID,20.1318,VALID,158,VALID,1.21484,
2011-08-05, 03:22:04,VALID,915.581,VALID,0,VALID,76.7297,VALID,0,VALID,20.1334,VALID,153,VALID,1.5918,
2011-08-05, 03:23:04,VALID,915.608,VALID,0,VALID,77.6064,VALID,0,VALID,20.0944,VALID,168,VALID,0.841406,
2011-08-05, 03:24:04,VALID,915.615,VALID,0,VALID,77.0117,VALID,0,VALID,20.0343,VALID,161,VALID,2.02695,
2011-08-05, 03:25:04,VALID,915.586,VALID,0,VALID,76.9736,VALID,0,VALID,20.0148,VALID,169,VALID,2.04492,
2011-08-05, 03:26:04,VALID,915.596,VALID,0,VALID,78.6508,VALID,0,VALID,19.9953,VALID,178,VALID,1.60195,
2011-08-05, 03:27:04,VALID,915.587,VALID,0,VALID,78.849,VALID,0,VALID,19.9578,VALID,177,VALID,1.53203,
2011-08-05, 03:28:04,VALID,915.546,VALID,0,VALID,78.9862,VALID,0,VALID,19.8798,VALID,165,VALID,2.12734,
2011-08-05, 03:29:04,VALID,915.566,VALID,0,VALID,79.8019,VALID,0,VALID,19.8003,VALID,171,VALID,1.34258,
2011-08-05, 03:30:04,VALID,915.544,VALID,0,VALID,80.2898,VALID,0,VALID,19.7823,VALID,186,VALID,0.835938,
2011-08-05, 03:31:04,VALID,915.576,VALID,0,VALID,80.732,VALID,0,VALID,19.7433,VALID,175,VALID,1.43203,
2011-08-05, 03:32:04,VALID,915.544,VALID,0,VALID,80.8768,VALID,0,VALID,19.6443,VALID,168,VALID,1.83711,
2011-08-05, 03:33:04,VALID,915.55,VALID,0,VALID,80.8692,VALID,0,VALID,19.5858,VALID,177,VALID,1.52031,
2011-08-05, 03:34:04,VALID,915.575,VALID,0,VALID,81.6163,VALID,0,VALID,19.5873,VALID,182,VALID,1.14922,
2011-08-05, 03:35:04,VALID,915.558,VALID,0,VALID,81.2961,VALID,0,VALID,19.5273,VALID,172,VALID,1.66875,
2011-08-05, 03:36:04,VALID,915.553,VALID,0,VALID,81.2504,VALID,0,VALID,19.5468,VALID,171,VALID,1.73555,
2011-08-05, 03:37:04,VALID,915.535,VALID,0,VALID,81.5934,VALID,0,VALID,19.5663,VALID,180,VALID,2.06875,
2011-08-05, 03:38:04,VALID,915.537,VALID,0,VALID,81.7383,VALID,0,VALID,19.5663,VALID,182,VALID,1.56914,
2011-08-05, 03:39:04,VALID,915.543,VALID,0,VALID,80.7548,VALID,0,VALID,19.5663,VALID,171,VALID,2.97695,
2011-08-05, 03:40:04,VALID,915.551,VALID,0,VALID,81.3647,VALID,0,VALID,19.5858,VALID,177,VALID,2.45117,
2011-08-05, 03:41:04,VALID,915.534,VALID,0,VALID,80.9302,VALID,0,VALID,19.5858,VALID,181,VALID,2.57852,
2011-08-05, 03:42:04,VALID,915.54,VALID,0,VALID,81.1131,VALID,0,VALID,19.5858,VALID,161,VALID,2.14766,
2011-08-05, 03:43:04,VALID,915.55,VALID,0,VALID,80.5109,VALID,0,VALID,19.6248,VALID,182,VALID,2.09922,
2011-08-05, 03:44:04,VALID,915.521,VALID,0,VALID,81.5477,VALID,0,VALID,19.6248,VALID,169,VALID,1.7332,
2011-08-05, 03:45:04,VALID,915.54,VALID,0,VALID,82.0966,VALID,0,VALID,19.5858,VALID,169,VALID,1.33398,